星链-37725(STARLINK-37725)

导读

STARLINK-37725(NORAD编号69224)是SpaceX星链(Starlink)互联网星座中的一颗低轨通信卫星,归属星链全球卫星互联网组网项目。星链项目旨在通过大规模低轨卫星部署,为全球提供低成本、高覆盖的互联网接入服务,该卫星作为星座扩容批次卫星之一,服务于全球网络覆盖的补充。 它运行在约550公里高度的近地轨道,主要承担卫星通信中继任务,可为地面用户提供宽带互联网接入服务,尤其能补充高纬度偏远地区、海洋等传统网络覆盖盲区的连接能力,助力星链持续推进其全球网络覆盖的部署目标。

基本信息
目录编号:
69224
目录名称:
STARLINK-37725
国际标识:
2026-115P
轨道中心:
EARTH
卫星名称:
星链-37725
卫星全名:
星链-37725(STARLINK-37725)
卫星状态:
在轨 (已飞行110 天)
发射日期:
2026-05-26 UTC
国别 :
美国 (US)
星等 :
--
该卫星已列入 空间交会检测服务 Space Conjunction Data Service (SCDS) ,当前飞行风险评估等级: 无高风险
轨道信息
数据来源 国际轨道数据
星历时间: 2026-09-13T08:16:53+0800
11小时前
查看轨道信息
半长轴: 6843.664km
偏心率: 0.0001701
轨道倾角: 97.282°
近地点辐角 108.163°
升交点赤经 272.224°
平近点角 251.980°
近地点: 464.362km
远地点: 466.692km
周期: 93.906分钟
每日圈数: 15.334505
详细信息
固有亮度:
5
最大亮度:
2.5
卫星平台:
Starlink V1.0
覆盖范围:
全球
运营商:
太空探索技术公司
运营商所在国:
美国
制造商(研发单位):
太空探索技术公司
制造商所在国:
美国
使用方式:
暂无
卫星简介
Starlink 计划是 SpaceX 推出的全球卫星互联网项目,通过发射低轨道卫星,为全球尤其是偏远地区提供高速、低延迟的互联网服务。自 2019 年起,Starlink 已部署数千颗卫星,旨在缩小全球数字鸿沟,推动互联网普及。该项目还为军事、航空等行业提供通信支持,带来广泛经济效益。
2D轨道图
3D轨道图
轨道高度分析图
轨道倾角分析图
轨道综合分析图
查看轨道综合分析图
交会数据列表
事件ID 空间交会对象 最接近时刻(TCA) 交会距离 交会风险概率(CRP) 交会风险指数(CRI) 操作
CDM_260914-204804-945606-922421
2026-09-14T
20:48:36+0000
2.433 km
极远距离
1.834067E-6 低风险 0.4
CDM_260913-200306-238106-922421
HAWK-11C (62381)
2026-09-13T
20:03:03+0000
2.639 km
极远距离
1.446575E-6 低风险 0.38
CDM_260914-073004-943306-922421
2026-09-14T
07:30:24+0000
2.850 km
极远距离
1.421107E-6 低风险 0.38
CDM_260915-051705-267506-922421
2026-09-15T
05:17:45+0000
2.702 km
极远距离
1.311623E-6 低风险 0.37
CDM_260905-190005-210806-922421
2026-09-05T
19:00:06+0000
2.594 km
极远距离
1.305267E-6 低风险 0.37
CDM_260915-034705-228206-922421
2026-09-15T
03:47:35+0000
2.724 km
极远距离
1.034487E-6 低风险 0.35
CDM_260915-083506-417506-922421
2026-09-15T
08:35:29+0000
2.846 km
极远距离
8.571803E-7 极低风险 0.34
与全量物体交会距离演化趋势
与全量物体交会风险概率演化趋势